User: anonymous   Login
Location: Caltech
(34.1382°N, 118.1253°W)
Time: 22:34:48
(UTC-07:00)
Language:

Cosmos 1626 - Orbit

View from above orbital plane
View from above orbital plane
View from above satellite
View from above satellite

Ground track
Ground track

The orbit data is extracted from the following two-line orbital elements,

1 15494U 85009A   18110.51868462  .00000906  00000-0  37026-4 0  9993
2 15494  82.4769 302.0547 0003794  70.4225 289.7421 15.23070978815543
Epoch (UTC): 20 April 2018 12:26:54
Eccentricity: 0.0003794
inclination: 82.4769°
perigee height: 494 km
apogee height: 499 km
right ascension of ascending node: 302.0547°
argument of perigee: 70.4225°
revolutions per day: 15.23070978
mean anomaly at epoch: 289.7421°
orbit number at epoch: 81554

The dashed part of the orbit path shows where the satellite is in the earth's shadow,  

DLR